Вернуться в каталог

COSMOS 1317 DEB

LostHEO
NORAD 35508·DEBRIS·🇷🇺 Russia

Запущен Oct 31, 1981 с Plesetsk Cosmodrome

Loading…

Ближайшие Пролёты (ближайшие 24 часа)

TLE

УстаревшееSource: Space-Track

Эпоха: Oct 18, 2010, 18:05 UTC

1 35508U 81108H   10291.75385569  .00000654  00000-0  00000+0 0  9994
2 35508  71.3949 321.1066 5287555 132.4813   3.2597  2.00432404 15678

Отслеживайте COSMOS 1317 DEB в реальном времени с AllMySat

Download on the App Store